Flag for Germany

Past Weather in Garmisch-Partenkirchen, Bavaria, Germany — Yesterday and Last 2 Weeks

Now
64 °F

Passing clouds.


Feels Like: 64 °F
Forecast: 62 / 54 °F
Wind: 2 mph from North

Location: Innsbruck-Flughafen
Current Time: Sep 22, 2020 at 10:53:52 am
Latest Report: Sep 22, 2020 at 10:20 am
Visibility: N/A
Pressure29.98 "Hg(27.62 "Hg at 699m altitude)
Humidity: 78%
Dew Point: 57 °F
Location of Garmisch-PartenkirchenLocation

Past Weather in Garmisch-Partenkirchen — Graph

°F

Garmisch-Partenkirchen Temperature Yesterday

Maximum temperature yesterday: 73 °F (at 2:20 pm)
Minimum temperature yesterday: 57 °F (at 5:20 am)
Average temperature yesterday: 65 °F

High & Low Weather Summary for the Past Weeks

 TemperatureHumidityPressure
High82 °F (Sep 15, 3:20 pm)100% (Sep 9, 6:20 am)30.42 "Hg (Sep 9, 6:20 am)
Low52 °F (Sep 8, 7:20 am)37% (Sep 15, 3:50 pm)29.92 "Hg (Sep 20, 1:50 pm)
Average65 °F75%30.18 "Hg
* Reported Sep 7 9:20 am — Sep 22 9:20 am, Garmisch-Partenkirchen. Weather by CustomWeather, © 2020

Note: Actual official high and low records may vary slightly from our data, if they occured in-between our weather recording intervals... More about our weather records

Garmisch-Partenkirchen Weather History for the Previous 24 Hours

Scroll right to see more
 ConditionsComfort  
Time TempWeatherWind HumidityBarometerVisibility
9:20 am
Tue, Sep 22
61 °FPassing clouds.1 mph83%30.01 "HgN/A
8:50 am61 °FScattered clouds.1 mph83%30.01 "HgN/A
8:20 am59 °FScattered clouds.1 mph88%30.01 "HgN/A
7:50 am57 °FPartly sunny.No wind94%30.01 "HgN/A
7:20 am55 °FPartly sunny.1 mph100%30.01 "HgN/A
6:50 am55 °FPassing clouds.3 mph94%30.01 "HgN/A
6:20 am57 °FPassing clouds.2 mph94%30.01 "HgN/A
5:50 am57 °FPassing clouds.6 mph94%30.01 "HgN/A
5:20 am57 °FPassing clouds.3 mph94%30.01 "HgN/A
4:50 am57 °FOvercast.3 mph94%30.01 "HgN/A
4:20 am57 °FPassing clouds.6 mph94%30.01 "HgN/A
3:20 am57 °FOvercast.5 mph94%30.01 "HgN/A
2:50 am57 °FOvercast.5 mph100%30.01 "HgN/A
2:20 am57 °FPassing clouds.7 mph100%30.01 "HgN/A
1:50 am59 °FCool.3 mph94%30.04 "HgN/A
1:20 am59 °FPassing clouds.5 mph94%30.04 "HgN/A
12:50 am59 °FPassing clouds.5 mph94%30.04 "HgN/A
12:20 am61 °FPassing clouds.2 mph88%30.04 "HgN/A
11:50 pm
Mon, Sep 21
61 °FPassing clouds.2 mph88%30.04 "HgN/A
11:20 pm63 °FPassing clouds.2 mph83%30.04 "HgN/A
10:50 pm63 °FPassing clouds.1 mph83%30.04 "HgN/A
10:20 pm63 °FPassing clouds.3 mph88%30.04 "HgN/A
9:50 pm63 °FPassing clouds.5 mph88%30.04 "HgN/A
9:20 pm63 °FPassing clouds.8 mph88%30.04 "HgN/A
8:50 pm63 °FPassing clouds.3 mph83%30.04 "HgN/A
8:20 pm64 °FPassing clouds.2 mph78%30.01 "HgN/A
7:50 pm64 °FPassing clouds.3 mph78%30.01 "HgN/A
7:20 pm66 °FPassing clouds.5 mph73%30.01 "HgN/A
6:50 pm64 °FScattered clouds.7 mph83%30.01 "HgN/A
6:20 pm66 °FScattered clouds.10 mph68%29.98 "HgN/A
5:50 pm68 °FScattered clouds.9 mph69%29.98 "HgN/A
5:20 pm72 °FScattered clouds.3 mph61%29.98 "HgN/A
4:50 pm73 °FPassing clouds.2 mph61%29.98 "HgN/A
4:20 pm73 °FPassing clouds.8 mph61%29.95 "HgN/A
3:50 pm73 °FPassing clouds.8 mph61%29.98 "HgN/A
3:20 pm73 °FPassing clouds.7 mph61%29.98 "HgN/A
2:50 pm73 °FPassing clouds.6 mph61%29.98 "HgN/A
2:20 pm73 °FPassing clouds.7 mph61%29.98 "HgN/A
1:50 pm72 °FPassing clouds.3 mph65%29.98 "HgN/A
1:20 pm72 °FPassing clouds.2 mph53%30.01 "HgN/A
12:50 pm72 °FPassing clouds.2 mph57%30.01 "HgN/A
12:20 pm70 °FPassing clouds.1 mph60%30.01 "HgN/A
11:50 am68 °FPassing clouds.2 mph64%30.04 "HgN/A
11:20 am66 °FPassing clouds.3 mph68%30.04 "HgN/A
10:50 am64 °FPassing clouds.3 mph73%30.04 "HgN/A
10:20 am64 °FPassing clouds.7 mph73%30.04 "HgN/A
Weather by CustomWeather, © 2020

See weather overview